When you browse on this site, cookies collect data to enhance your experience and personalize the content and advertising you see.
Visit our Privacy Policy to learn more. By continuing to use the site, you agree to this use of cookies and data.
  • In Slovakia
  • List of Countries
  • For 7 days
  • Water Temperature
  • Satellite Maps
  • Weather Map
  • Weather Widgets
  • user-avatar
    Login

    Hourly Weather Namibe

    Today, 24 July, Wednesday

    Time Temperature Precipitation Wind Pressure Humidity
    00:00 +16°C° 0 mm 2 mps 759 mmHg 86%
    01:00 +16°C° 0 mm 2 mps 759 mmHg 86%
    02:00 +16°C° 0 mm 2 mps 758 mmHg 86%
    03:00 +16°C° 0 mm 2 mps 758 mmHg 86%
    04:00 +15°C° 0 mm 2 mps 757 mmHg 86%
    05:00 +16°C° 0 mm 1 mps 758 mmHg 84%
    06:00 +16°C° 0 mm 1 mps 758 mmHg 82%
    07:00 +18°C° 0 mm 1 mps 758 mmHg 80%
    08:00 +21°C° 0 mm 1 mps 758 mmHg 66%
    09:00 +25°C° 0 mm 1 mps 758 mmHg 53%
    10:00 +28°C° 0 mm 1 mps 759 mmHg 40%
    11:00 +28°C° 0 mm 2 mps 758 mmHg 41%
    12:00 +28°C° 0 mm 3 mps 757 mmHg 42%
    13:00 +29°C° 0 mm 4 mps 757 mmHg 43%
    14:00 +28°C° 0 mm 4 mps 757 mmHg 47%
    15:00 +27°C° 0 mm 4 mps 756 mmHg 51%
    16:00 +26°C° 0 mm 4 mps 756 mmHg 55%
    17:00 +24°C° 0 mm 3 mps 757 mmHg 64%
    18:00 +21°C° 0 mm 3 mps 757 mmHg 73%
    19:00 +19°C° 0 mm 2 mps 758 mmHg 82%
    20:00 +19°C° 0 mm 2 mps 758 mmHg 80%
    21:00 +19°C° 0 mm 2 mps 759 mmHg 78%
    22:00 +20°C° 0 mm 1 mps 759 mmHg 76%
    23:00 +18°C° 0 mm 2 mps 759 mmHg 77%

    Tomorrow, 25 July, Thursday

    Time Temperature Precipitation Wind Pressure Humidity
    00:00 +18°C° 0 mm 2 mps 759 mmHg 77%
    01:00 +17°C° 0 mm 3 mps 759 mmHg 77%
    02:00 +17°C° 0 mm 3 mps 759 mmHg 79%
    03:00 +17°C° 0 mm 3 mps 759 mmHg 81%
    04:00 +16°C° 0 mm 2 mps 759 mmHg 83%
    05:00 +16°C° 0 mm 2 mps 759 mmHg 84%
    06:00 +16°C° 0 mm 1 mps 759 mmHg 84%
    07:00 +16°C° 0 mm 1 mps 759 mmHg 85%
    08:00 +20°C° 0 mm 1 mps 759 mmHg 72%
    09:00 +23°C° 0 mm 1 mps 759 mmHg 59%
    10:00 +26°C° 0 mm 2 mps 760 mmHg 46%
    11:00 +26°C° 0 mm 3 mps 759 mmHg 46%
    12:00 +27°C° 0 mm 3 mps 759 mmHg 47%
    13:00 +27°C° 0 mm 4 mps 758 mmHg 48%
    14:00 +26°C° 0 mm 4 mps 758 mmHg 52%
    15:00 +26°C° 0 mm 4 mps 758 mmHg 55%
    16:00 +25°C° 0 mm 4 mps 757 mmHg 59%
    17:00 +22°C° 0 mm 4 mps 758 mmHg 69%
    18:00 +20°C° 0 mm 3 mps 759 mmHg 79%
    19:00 +18°C° 0 mm 2 mps 759 mmHg 88%
    20:00 +18°C° 0 mm 2 mps 759 mmHg 89%
    21:00 +19°C° 0 mm 1 mps 760 mmHg 89%
    22:00 +19°C° 0 mm 1 mps 760 mmHg 89%
    23:00 +18°C° 0 mm 2 mps 760 mmHg 88%

    Day after tomorrow, 26 July, Friday

    Time Temperature Precipitation Wind Pressure Humidity
    00:00 +18°C° 0 mm 2 mps 760 mmHg 86%
    01:00 +17°C° 0 mm 2 mps 759 mmHg 84%
    02:00 +17°C° 0 mm 2 mps 759 mmHg 84%
    03:00 +17°C° 0 mm 2 mps 759 mmHg 84%
    04:00 +17°C° 0 mm 2 mps 759 mmHg 84%
    05:00 +17°C° 0 mm 2 mps 759 mmHg 84%
    06:00 +17°C° 0 mm 2 mps 759 mmHg 83%
    07:00 +17°C° 0 mm 2 mps 759 mmHg 83%
    08:00 +20°C° 0 mm 2 mps 759 mmHg 69%
    09:00 +24°C° 0 mm 2 mps 759 mmHg 55%
    10:00 +28°C° 0 mm 2 mps 760 mmHg 40%
    11:00 +28°C° 0 mm 3 mps 759 mmHg 43%
    12:00 +28°C° 0 mm 4 mps 758 mmHg 46%
    13:00 +28°C° 0 mm 5 mps 757 mmHg 49%
    14:00 +27°C° 0 mm 5 mps 757 mmHg 53%
    15:00 +26°C° 0 mm 5 mps 757 mmHg 57%
    16:00 +25°C° 0 mm 5 mps 757 mmHg 61%
    17:00 +22°C° 0 mm 3 mps 757 mmHg 71%
    18:00 +20°C° 0 mm 2 mps 758 mmHg 80%
    19:00 +19°C° 0 mm 1 mps 759 mmHg 90%
    20:00 +19°C° 0 mm 1 mps 759 mmHg 90%
    21:00 +19°C° 0 mm 1 mps 760 mmHg 90%
    22:00 +19°C° 0 mm 1 mps 760 mmHg 90%
    23:00 +18°C° 0 mm 1 mps 760 mmHg 89%

    27 July, Saturday

    Time Temperature Precipitation Wind Pressure Humidity
    00:00 +18°C° 0 mm 1 mps 760 mmHg 88%
    01:00 +18°C° 0 mm 1 mps 759 mmHg 86%
    02:00 +18°C° 0 mm 1 mps 759 mmHg 87%
    03:00 +16°C° 0 mm 1 mps 759 mmHg 88%
    04:00 +16°C° 0 mm 1 mps 759 mmHg 89%
    05:00 +16°C° 0 mm 1 mps 759 mmHg 90%
    06:00 +16°C° 0 mm 1 mps 759 mmHg 91%
    07:00 +16°C° 0 mm 1 mps 759 mmHg 92%
    08:00 +19°C° 0 mm 1 mps 760 mmHg 81%
    09:00 +21°C° 0 mm 2 mps 760 mmHg 70%
    10:00 +25°C° 0 mm 2 mps 760 mmHg 58%
    11:00 +25°C° 0 mm 3 mps 759 mmHg 58%
    12:00 +26°C° 0 mm 3 mps 758 mmHg 58%
    13:00 +26°C° 0 mm 4 mps 758 mmHg 58%
    14:00 +25°C° 0 mm 4 mps 758 mmHg 61%
    15:00 +25°C° 0 mm 4 mps 757 mmHg 64%
    16:00 +23°C° 0 mm 4 mps 757 mmHg 67%
    17:00 +22°C° 0 mm 3 mps 758 mmHg 73%
    18:00 +21°C° 0 mm 2 mps 758 mmHg 78%
    19:00 +21°C° 0 mm 1 mps 759 mmHg 83%
    20:00 +20°C° 0 mm 1 mps 759 mmHg 85%
    21:00 +18°C° 0 mm 0 mps 759 mmHg 87%
    22:00 +17°C° 0 mm 0 mps 760 mmHg 89%
    23:00 +19°C° 0 mm 1 mps 760 mmHg 89%

    28 July, Sunday

    Time Temperature Precipitation Wind Pressure Humidity
    00:00 +19°C° 0 mm 1 mps 759 mmHg 90%
    01:00 +18°C° 0 mm 1 mps 759 mmHg 91%
    02:00 +18°C° 0 mm 1 mps 759 mmHg 92%
    03:00 +16°C° 0 mm 1 mps 759 mmHg 93%
    04:00 +16°C° 0 mm 1 mps 758 mmHg 93%
    05:00 +16°C° 0 mm 1 mps 759 mmHg 94%
    06:00 +16°C° 0 mm 1 mps 759 mmHg 94%
    07:00 +16°C° 0 mm 1 mps 760 mmHg 95%
    08:00 +19°C° 0 mm 1 mps 760 mmHg 88%
    09:00 +21°C° 0 mm 1 mps 760 mmHg 81%
    10:00 +23°C° 0 mm 1 mps 760 mmHg 74%
    11:00 +24°C° 0 mm 2 mps 760 mmHg 69%
    12:00 +25°C° 0 mm 3 mps 759 mmHg 64%
    13:00 +26°C° 0 mm 4 mps 759 mmHg 59%
    14:00 +25°C° 0 mm 4 mps 759 mmHg 62%
    15:00 +25°C° 0 mm 4 mps 758 mmHg 65%
    16:00 +23°C° 0 mm 4 mps 758 mmHg 67%
    17:00 +22°C° 0 mm 4 mps 759 mmHg 74%
    18:00 +21°C° 0 mm 3 mps 759 mmHg 81%
    19:00 +19°C° 0 mm 3 mps 760 mmHg 88%
    20:00 +19°C° 0 mm 3 mps 760 mmHg 87%
    21:00 +19°C° 0 mm 3 mps 761 mmHg 86%
    22:00 +18°C° 0 mm 3 mps 761 mmHg 85%
    23:00 +18°C° 0 mm 3 mps 761 mmHg 86%

    29 July, Monday

    Time Temperature Precipitation Wind Pressure Humidity
    00:00 +17°C° 0 mm 3 mps 761 mmHg 88%
    01:00 +17°C° 0 mm 2 mps 761 mmHg 89%
    02:00 +17°C° 0 mm 3 mps 760 mmHg 89%
    03:00 +16°C° 0 mm 3 mps 760 mmHg 90%
    04:00 +15°C° 0 mm 4 mps 760 mmHg 91%
    05:00 +14°C° 0 mm 4 mps 761 mmHg 91%
    06:00 +14°C° 0 mm 4 mps 761 mmHg 91%
    07:00 +14°C° 0 mm 4 mps 761 mmHg 91%
    08:00 +17°C° 0 mm 4 mps 761 mmHg 80%
    09:00 +19°C° 0 mm 4 mps 761 mmHg 69%
    10:00 +21°C° 0 mm 4 mps 761 mmHg 59%
    11:00 +23°C° 0 mm 5 mps 761 mmHg 53%
    12:00 +26°C° 0 mm 6 mps 760 mmHg 47%
    13:00 +27°C° 0 mm 7 mps 759 mmHg 41%
    14:00 +26°C° 0 mm 7 mps 759 mmHg 47%
    15:00 +24°C° 0 mm 7 mps 758 mmHg 53%
    16:00 +23°C° 0 mm 8 mps 758 mmHg 59%
    17:00 +21°C° 0 mm 7 mps 758 mmHg 64%
    18:00 +20°C° 0 mm 7 mps 759 mmHg 69%
    19:00 +17°C° 0 mm 6 mps 759 mmHg 75%
    20:00 +16°C° 0 mm 5 mps 759 mmHg 78%
    21:00 +16°C° 0 mm 5 mps 760 mmHg 82%
    22:00 +15°C° 0 mm 4 mps 760 mmHg 85%
    23:00 +14°C° 0 mm 4 mps 760 mmHg 87%
    Show more